When you browse on this site, cookies collect data to enhance your experience and personalize the content and advertising you see.
Visit our Privacy Policy to learn more. By continuing to use the site, you agree to this use of cookies and data.
  • In Denmark
  • List of Countries
  • For 7 days
  • Water Temperature
  • Satellite Maps
  • Weather Map
  • Weather Widgets
  • user-avatar
    Login

    Hourly Weather Hrazdan

    Today, 22 February, Friday

    Time Temperature Precipitation Wind Pressure Humidity
    00:00 -8°C° 0 mm 2 mps 609 mmHg 72%
    01:00 -9°C° 0 mm 2 mps 608 mmHg 74%
    02:00 -9°C° 0 mm 2 mps 608 mmHg 75%
    03:00 -9°C° 0 mm 2 mps 608 mmHg 77%
    04:00 -9°C° 0 mm 2 mps 608 mmHg 78%
    05:00 -9°C° 0 mm 2 mps 608 mmHg 78%
    06:00 -9°C° 0 mm 2 mps 608 mmHg 79%
    07:00 -8°C° 0 mm 2 mps 608 mmHg 79%
    08:00 -8°C° 0 mm 3 mps 609 mmHg 78%
    09:00 -7°C° 0 mm 3 mps 609 mmHg 77%
    10:00 -6°C° 0 mm 3 mps 609 mmHg 75%
    11:00 -5°C° 0 mm 3 mps 609 mmHg 73%
    12:00 -4°C° 0 mm 3 mps 609 mmHg 70%
    13:00 -4°C° 0 mm 3 mps 609 mmHg 70%
    14:00 -4°C° 0 mm 3 mps 608 mmHg 69%
    15:00 -2°C° 0 mm 3 mps 608 mmHg 69%
    16:00 -5°C° 0 mm 3 mps 608 mmHg 70%
    17:00 -6°C° 0 mm 2 mps 607 mmHg 71%
    18:00 -7°C° 0 mm 2 mps 607 mmHg 72%
    19:00 -8°C° 0 mm 2 mps 607 mmHg 71%
    20:00 -8°C° 0 mm 2 mps 608 mmHg 70%
    21:00 -8°C° 0 mm 2 mps 608 mmHg 70%
    22:00 -8°C° 0 mm 2 mps 608 mmHg 71%
    23:00 -9°C° 0 mm 2 mps 609 mmHg 71%

    Tomorrow, 23 February, Saturday

    Time Temperature Precipitation Wind Pressure Humidity
    00:00 -9°C° 0 mm 2 mps 609 mmHg 72%
    01:00 -9°C° 0 mm 2 mps 609 mmHg 74%
    02:00 -9°C° 0 mm 2 mps 609 mmHg 75%
    03:00 -9°C° 0 mm 2 mps 609 mmHg 76%
    04:00 -9°C° 0 mm 2 mps 609 mmHg 77%
    05:00 -9°C° 0 mm 2 mps 609 mmHg 77%
    06:00 -9°C° 0 mm 2 mps 609 mmHg 77%
    07:00 -8°C° 0 mm 2 mps 610 mmHg 77%
    08:00 -7°C° 0 mm 2 mps 610 mmHg 77%
    09:00 -6°C° 0 mm 3 mps 611 mmHg 76%
    10:00 -5°C° 0 mm 3 mps 611 mmHg 75%
    11:00 -4°C° 0 mm 3 mps 611 mmHg 73%
    12:00 -2°C° 0 mm 3 mps 611 mmHg 72%
    13:00 -1°C° 0 mm 3 mps 611 mmHg 71%
    14:00 -1°C° 0 mm 3 mps 611 mmHg 71%
    15:00 -1°C° 0 mm 3 mps 611 mmHg 71%
    16:00 -2°C° 0 mm 3 mps 610 mmHg 72%
    17:00 -4°C° 0 mm 2 mps 610 mmHg 74%
    18:00 -5°C° 0 mm 2 mps 610 mmHg 75%
    19:00 -6°C° 0 mm 2 mps 610 mmHg 74%
    20:00 -6°C° 0 mm 2 mps 610 mmHg 74%
    21:00 -6°C° 0 mm 2 mps 610 mmHg 74%
    22:00 -7°C° 0 mm 2 mps 611 mmHg 74%
    23:00 -7°C° 0 mm 2 mps 611 mmHg 75%

    Day after tomorrow, 24 February, Sunday

    Time Temperature Precipitation Wind Pressure Humidity
    00:00 -7°C° 0 mm 2 mps 611 mmHg 75%
    01:00 -7°C° 0 mm 2 mps 611 mmHg 76%
    02:00 -7°C° 0 mm 2 mps 611 mmHg 77%
    03:00 -7°C° 0 mm 2 mps 611 mmHg 78%
    04:00 -7°C° 0 mm 2 mps 611 mmHg 78%
    05:00 -8°C° 0 mm 2 mps 611 mmHg 79%
    06:00 -7°C° 0 mm 1 mps 610 mmHg 79%
    07:00 -6°C° 0 mm 2 mps 611 mmHg 78%
    08:00 -5°C° 0 mm 2 mps 612 mmHg 77%
    09:00 -4°C° 0 mm 2 mps 612 mmHg 76%
    10:00 -3°C° 0 mm 2 mps 613 mmHg 74%
    11:00 -1°C° 0 mm 2 mps 613 mmHg 72%
    12:00 +1°C° 0 mm 2 mps 613 mmHg 70%
    13:00 +1°C° 0 mm 2 mps 612 mmHg 70%
    14:00 +1°C° 0 mm 2 mps 612 mmHg 69%
    15:00 +1°C° 0 mm 2 mps 612 mmHg 69%
    16:00 +1°C° 0 mm 1 mps 611 mmHg 70%
    17:00 -1°C° 0 mm 1 mps 611 mmHg 72%
    18:00 -2°C° 0 mm 1 mps 611 mmHg 73%
    19:00 -3°C° 0 mm 1 mps 611 mmHg 73%
    20:00 -3°C° 0 mm 1 mps 611 mmHg 73%
    21:00 -4°C° 0 mm 1 mps 611 mmHg 73%
    22:00 -4°C° 0 mm 1 mps 611 mmHg 73%
    23:00 -4°C° 0 mm 1 mps 612 mmHg 73%

    25 February, Monday

    Time Temperature Precipitation Wind Pressure Humidity
    00:00 -4°C° 0 mm 1 mps 612 mmHg 73%
    01:00 -4°C° 0 mm 1 mps 612 mmHg 74%
    02:00 -6°C° 0 mm 1 mps 611 mmHg 75%
    03:00 -6°C° 0 mm 1 mps 611 mmHg 76%
    04:00 -6°C° 0 mm 1 mps 611 mmHg 77%
    05:00 -6°C° 0 mm 1 mps 611 mmHg 77%
    06:00 -6°C° 0 mm 1 mps 611 mmHg 78%
    07:00 -4°C° 0 mm 1 mps 612 mmHg 78%
    08:00 -5°C° 0 mm 2 mps 613 mmHg 78%
    09:00 -3°C° 0 mm 2 mps 613 mmHg 77%
    10:00 -3°C° 0 mm 2 mps 613 mmHg 75%
    11:00 -2°C° 0 mm 2 mps 613 mmHg 72%
    12:00 -1°C° 0 mm 2 mps 613 mmHg 69%
    13:00 -1°C° 0 mm 2 mps 612 mmHg 68%
    14:00 -1°C° 0 mm 2 mps 612 mmHg 67%
    15:00 -1°C° 0 mm 2 mps 611 mmHg 66%
    16:00 -2°C° 0 mm 2 mps 611 mmHg 69%
    17:00 -3°C° 0 mm 2 mps 610 mmHg 71%
    18:00 -3°C° 0 mm 1 mps 610 mmHg 73%
    19:00 -4°C° 0 mm 1 mps 610 mmHg 74%
    20:00 -4°C° 0 mm 1 mps 610 mmHg 74%
    21:00 -6°C° 0 mm 1 mps 610 mmHg 75%
    22:00 -6°C° 0 mm 1 mps 610 mmHg 75%
    23:00 -6°C° 0 mm 1 mps 610 mmHg 75%

    26 February, Tuesday

    Time Temperature Precipitation Wind Pressure Humidity
    00:00 -7°C° 0 mm 2 mps 610 mmHg 75%
    01:00 -7°C° 0 mm 2 mps 610 mmHg 76%
    02:00 -7°C° 0 mm 2 mps 609 mmHg 77%
    03:00 -8°C° 0 mm 2 mps 609 mmHg 78%
    04:00 -8°C° 0 mm 2 mps 609 mmHg 78%
    05:00 -8°C° 0 mm 2 mps 609 mmHg 78%
    06:00 -9°C° 0 mm 3 mps 608 mmHg 79%
    07:00 -8°C° 0 mm 3 mps 608 mmHg 76%
    08:00 -7°C° 0 mm 3 mps 609 mmHg 74%
    09:00 -6°C° 0 mm 3 mps 609 mmHg 71%
    10:00 -5°C° 0 mm 4 mps 608 mmHg 68%
    11:00 -4°C° 0 mm 4 mps 607 mmHg 64%
    12:00 -3°C° 0 mm 4 mps 607 mmHg 61%
    13:00 -2°C° 0 mm 4 mps 606 mmHg 59%
    14:00 -2°C° 0 mm 4 mps 605 mmHg 58%
    15:00 -2°C° 0 mm 4 mps 604 mmHg 57%
    16:00 -2°C° 0 mm 3 mps 603 mmHg 59%
    17:00 -5°C° 0 mm 3 mps 602 mmHg 61%
    18:00 -6°C° 0 mm 3 mps 601 mmHg 63%
    19:00 -6°C° 0 mm 3 mps 601 mmHg 63%
    20:00 -6°C° 0 mm 3 mps 601 mmHg 64%
    21:00 -6°C° 0 mm 3 mps 600 mmHg 65%
    22:00 -5°C° 0 mm 2 mps 600 mmHg 68%
    23:00 -5°C° 0 mm 2 mps 599 mmHg 71%

    27 February, Wednesday

    Time Temperature Precipitation Wind Pressure Humidity
    00:00 -5°C° 0 mm 2 mps 599 mmHg 75%
    01:00 -5°C° 0.2 mm 2 mps 598 mmHg 78%
    02:00 -2°C° 0.2 mm 1 mps 598 mmHg 82%
    03:00 -2°C° 0.2 mm 1 mps 597 mmHg 85%
    04:00 -3°C° 0.3 mm 1 mps 597 mmHg 87%
    05:00 -3°C° 0.3 mm 1 mps 596 mmHg 88%
    06:00 -3°C° 0.3 mm 1 mps 596 mmHg 90%
    07:00 -2°C° 0.4 mm 1 mps 596 mmHg 89%
    08:00 -2°C° 0.4 mm 1 mps 596 mmHg 89%
    09:00 -2°C° 0.4 mm 1 mps 596 mmHg 88%
    10:00 -1°C° 0.2 mm 1 mps 596 mmHg 86%
    11:00 0°C° 0.2 mm 1 mps 596 mmHg 83%
    12:00 0°C° 0.2 mm 1 mps 596 mmHg 80%
    13:00 0°C° 0.2 mm 1 mps 596 mmHg 79%
    14:00 -1°C° 0.2 mm 2 mps 596 mmHg 77%
    15:00 -1°C° 0.2 mm 2 mps 596 mmHg 76%
    16:00 -2°C° 0.2 mm 2 mps 597 mmHg 78%
    17:00 -1°C° 0.2 mm 1 mps 597 mmHg 80%
    18:00 -2°C° 0.2 mm 1 mps 597 mmHg 82%
    19:00 -2°C° 0.3 mm 1 mps 597 mmHg 83%
    20:00 -2°C° 0.3 mm 1 mps 598 mmHg 85%
    21:00 -3°C° 0.3 mm 1 mps 598 mmHg 86%
    22:00 -3°C° 0.3 mm 1 mps 598 mmHg 86%
    23:00 -3°C° 0.3 mm 1 mps 598 mmHg 86%
    Show more